TimeCDT,TemperatureF,Dew PointF,Humidity,Sea Level PressureIn,VisibilityMPH,Wind Direction,Wind SpeedMPH,Gust SpeedMPH,PrecipitationIn,Events,Conditions,WindDirDegrees,DateUTC
12:53 AM,73.9,64.0,71,29.90,10.0,South,11.5,-,N/A,,Partly Cloudy,170,2013-10-06 05:53:00
1:53 AM,73.0,64.0,73,29.88,10.0,South,11.5,-,N/A,,Partly Cloudy,170,2013-10-06 06:53:00
2:53 AM,73.9,63.0,68,29.88,10.0,South,11.5,-,N/A,,Mostly Cloudy,180,2013-10-06 07:53:00
3:53 AM,73.0,63.0,71,29.86,10.0,South,12.7,20.7,N/A,,Mostly Cloudy,170,2013-10-06 08:53:00
4:53 AM,73.0,63.0,71,29.86,10.0,South,13.8,-,N/A,,Mostly Cloudy,170,2013-10-06 09:53:00
5:53 AM,71.1,66.0,84,29.87,3.0,SSW,12.7,26.5,0.07,Rain-Thunderstorm,Light Thunderstorms and Rain,200,2013-10-06 10:53:00
6:19 AM,69.8,66.2,88,29.89,9.0,West,4.6,-,0.04,Rain-Thunderstorm,Light Thunderstorms and Rain,270,2013-10-06 11:19:00
6:26 AM,69.8,68.0,94,29.90,8.0,SW,5.8,-,0.05,Rain,Light Rain,220,2013-10-06 11:26:00
6:41 AM,69.8,68.0,94,29.91,1.8,SW,8.1,-,N/A,Rain,Rain,230,2013-10-06 11:41:00
6:49 AM,69.8,68.0,94,29.90,1.2,SW,6.9,-,0.30,Rain,Heavy Rain,220,2013-10-06 11:49:00
6:53 AM,70.0,68.0,93,29.88,1.8,SW,3.5,-,0.33,Rain,Rain,230,2013-10-06 11:53:00
7:01 AM,69.8,68.0,94,29.90,1.5,WSW,4.6,-,0.09,Rain,Heavy Rain,250,2013-10-06 12:01:00
7:08 AM,69.8,68.0,94,29.90,3.0,West,4.6,-,0.11,Rain,Light Rain,280,2013-10-06 12:08:00
7:17 AM,69.8,68.0,94,29.90,9.0,South,4.6,-,0.11,,Overcast,180,2013-10-06 12:17:00
7:43 AM,69.8,68.0,94,29.90,3.0,South,10.4,-,0.12,Rain,Light Rain,180,2013-10-06 12:43:00
7:49 AM,69.8,66.2,88,29.90,2.5,SSW,5.8,-,0.16,Rain,Light Rain,200,2013-10-06 12:49:00
7:53 AM,70.0,68.0,93,29.89,5.0,South,6.9,-,0.17,Rain,Light Rain,190,2013-10-06 12:53:00
8:16 AM,69.8,68.0,94,29.90,9.0,South,6.9,-,0.00,Rain,Light Rain,170,2013-10-06 13:16:00
8:34 AM,69.8,66.2,88,29.90,10.0,SSE,8.1,-,0.02,Rain,Light Rain,160,2013-10-06 13:34:00
8:53 AM,70.0,68.0,93,29.88,10.0,South,5.8,-,0.02,,Mostly Cloudy,170,2013-10-06 13:53:00
9:06 AM,69.8,68.0,94,29.90,10.0,South,5.8,-,N/A,,Overcast,170,2013-10-06 14:06:00
9:53 AM,71.1,68.0,90,29.87,10.0,Calm,Calm,-,N/A,,Overcast,0,2013-10-06 14:53:00
10:30 AM,71.6,68.0,88,29.89,10.0,SW,3.5,-,0.00,Rain,Light Rain,230,2013-10-06 15:30:00
10:53 AM,73.9,69.1,85,29.86,10.0,WSW,10.4,17.3,0.00,,Mostly Cloudy,250,2013-10-06 15:53:00
11:53 AM,73.9,66.9,79,29.85,10.0,WNW,10.4,-,N/A,,Overcast,290,2013-10-06 16:53:00
12:29 PM,68.0,64.4,88,29.87,10.0,NW,10.4,-,0.00,Rain,Light Rain,320,2013-10-06 17:29:00
12:43 PM,64.4,62.6,94,29.87,8.0,NW,12.7,18.4,0.01,Rain,Light Rain,310,2013-10-06 17:43:00
12:53 PM,64.0,62.1,93,29.85,9.0,NW,10.4,-,0.01,Rain,Light Rain,310,2013-10-06 17:53:00
1:53 PM,63.0,61.0,93,29.84,9.0,WNW,6.9,-,0.00,Rain,Light Rain,290,2013-10-06 18:53:00
2:53 PM,64.0,61.0,90,29.83,7.0,WNW,5.8,-,0.03,Rain,Light Rain,290,2013-10-06 19:53:00
3:53 PM,59.0,53.1,81,29.84,10.0,WNW,11.5,20.7,0.00,Rain,Light Rain,300,2013-10-06 20:53:00
4:04 PM,57.2,53.6,88,29.87,5.0,WNW,8.1,-,0.00,Rain,Rain,290,2013-10-06 21:04:00
4:53 PM,59.0,54.0,83,29.85,10.0,Calm,Calm,-,0.03,,Overcast,0,2013-10-06 21:53:00
5:13 PM,59.0,55.4,88,29.87,9.0,WNW,3.5,-,0.00,Rain,Light Rain,290,2013-10-06 22:13:00
5:37 PM,57.2,53.6,88,29.88,1.5,Variable,5.8,-,0.03,Rain,Heavy Rain,0,2013-10-06 22:37:00
5:44 PM,57.2,53.6,88,29.88,1.0,South,3.5,-,0.12,Rain,Heavy Rain,180,2013-10-06 22:44:00
5:48 PM,57.2,53.6,88,29.88,1.5,South,4.6,-,0.16,Rain,Light Rain,170,2013-10-06 22:48:00
5:53 PM,57.0,54.0,89,29.87,5.0,SSE,4.6,-,0.17,Rain,Light Rain,160,2013-10-06 22:53:00
6:00 PM,57.2,53.6,88,29.89,10.0,South,4.6,-,0.00,Rain,Light Rain,190,2013-10-06 23:00:00
6:08 PM,55.4,53.6,94,29.88,1.8,Calm,Calm,-,0.02,Rain,Heavy Rain,0,2013-10-06 23:08:00
6:18 PM,55.4,53.6,94,29.88,3.0,South,3.5,-,0.08,Rain,Light Rain,170,2013-10-06 23:18:00
6:53 PM,57.0,54.0,89,29.88,10.0,Calm,Calm,-,0.09,,Overcast,0,2013-10-06 23:53:00
7:53 PM,57.0,55.0,93,29.91,10.0,South,5.8,-,N/A,,Overcast,180,2013-10-07 00:53:00
8:53 PM,57.9,55.9,93,29.92,10.0,South,4.6,-,N/A,,Overcast,170,2013-10-07 01:53:00
9:53 PM,57.9,55.9,93,29.93,10.0,Calm,Calm,-,N/A,,Overcast,0,2013-10-07 02:53:00
10:53 PM,57.0,55.0,93,29.95,10.0,Calm,Calm,-,N/A,,Scattered Clouds,0,2013-10-07 03:53:00
11:53 PM,55.9,53.1,90,29.95,10.0,NW,3.5,-,N/A,,Clear,310,2013-10-07 04:53:00